Theta_e
316 317 317 318 318 318 318 319 320 319 320 320 320 321 321 321 321 320 319 318 318 318
303 309 316 318 319 320 320 320 320 319 319 319 320 320 320 319 319 319 319 319 318 317
299 300 302 305 309 313 318 320 320 320 319 319 319 319 319 319 319 318 318 318 318 316
297 298 299 299 300 301 304 307 312 318 320 319 319 319 318 318 317 316 317 317 316 316
295 295 295 296 297 298 299 302 304 306 310 316 319 320 318 318 318 316 316 316 316 316
292 293 293 294 294 295 296 297 299 301 303 306 310 315 319 318 318 318 317 317 316 316
290 290 291 292 292 293 294 294 295 297 298 301 303 306 310 316 318 318 318 318 318 317
288 288 289 289 290 292 293 293 294 294 296 297 299 302 303 303 306 312 316 317 318 318
285 285 286 288 289 290 291 292 292 293 293 294 295 295 295 296 298 300 304 311 316 317
282 283 284 286 287 287 288 290 290 291 292 292 293 293 293 293 295 297 299 302 307 312
280 279 281 284 285 285 287 287 288 289 290 290 292 293 293 292 294 296 297 299 301 305
277 277 278 281 283 284 285 285 286 287 288 288 290 292 292 293 293 293 293 296 299 301
276 275 276 278 282 283 283 284 285 286 287 287 289 291 292 293 292 290 290 291 292 292
274 274 276 278 280 281 282 282 283 285 286 287 288 289 291 292 292 291 290 289 290 292
Wind_Speed
6 5 6 7 7 6 7 8 10 11 12 13 14 13 13 11 12 13 13 17 15 12
7 7 5 7 6 6 7 7 9 11 12 13 14 14 14 11 13 13 13 14 15 14
7 7 7 7 8 8 8 8 9 10 11 12 13 13 14 12 12 14 12 12 15 14
8 8 6 6 8 8 9 9 9 10 11 12 13 13 14 15 15 15 15 15 15 17
8 9 9 8 9 10 10 10 10 10 11 11 12 13 14 15 13 16 17 16 16 18
7 8 9 9 10 10 11 11 11 10 11 11 12 13 13 14 15 15 17 16 17 17
9 10 9 11 11 10 10 11 12 11 11 11 11 11 12 13 14 15 16 17 18 18
9 9 9 9 10 11 11 10 12 12 11 11 11 7 11 12 14 16 16 16 16 17
9 8 8 9 10 10 10 10 11 11 11 11 9 16 15 15 14 14 14 16 15 15
8 9 9 10 10 11 11 11 11 11 11 12 12 18 19 17 12 14 13 15 14 13
11 12 11 10 11 12 11 12 11 12 12 13 11 16 18 19 13 11 14 14 16 16
10 10 9 9 9 11 11 11 12 12 13 12 11 17 17 16 11 10 12 12 13 15
11 11 12 12 12 11 11 11 10 12 12 14 14 14 16 16 8 10 9 9 9 13
11 11 10 11 10 10 10 10 10 10 9 9 9 13 19 18 12 9 10 10 10 9
Wind_Direction
239 241 240 238 236 233 233 232 229 221 227 229 230 231 231 234 232 226 229 232 226 228
24 12 322 291 268 259 253 248 236 228 230 230 231 230 230 232 232 230 230 232 230 232
16 18 6 355 346 326 303 284 269 254 242 240 233 230 232 237 235 232 231 231 231 229
11 7 17 15 353 342 329 324 313 295 271 257 247 236 232 232 232 232 236 232 231 234
7 360 0 7 359 346 338 329 323 316 308 297 273 255 242 244 238 233 234 235 233 236
12 4 356 347 350 348 340 336 330 328 322 316 312 301 272 251 249 243 242 239 235 238
6 353 353 341 345 344 337 334 330 328 324 318 315 310 302 294 268 254 248 244 241 240
351 343 344 340 340 339 342 335 329 324 329 327 321 319 332 326 316 301 272 258 253 249
341 345 341 339 335 331 335 334 331 327 332 331 324 322 320 323 313 302 295 290 268 254
336 341 344 339 331 330 327 326 324 326 333 326 324 326 323 305 302 299 295 291 291 288
347 340 331 335 332 330 327 319 322 326 325 321 320 319 316 312 305 296 301 300 293 293
337 326 325 310 309 316 322 326 324 319 315 316 314 315 305 324 315 303 298 294 296 289
337 328 320 310 319 323 320 312 308 312 313 313 313 310 304 323 321 309 306 297 287 285
318 309 298 304 313 310 309 303 301 299 301 298 312 323 326 319 317 314 316 315 314 306